{"data":{"norad_id":67891,"intl_designator":"2026-035N","name":"STARLINK-36816","alt_names":[],"object_type":"PAYLOAD","status":"ACTIVE","operator":null,"country":"US","launch_date":"2026-02-21","launch_site_code":"AFWTR","launch_vehicle":null,"mission":null,"orbit_class":"UNKNOWN","rcs_meters":null,"size_class":null,"mass_kg":null,"dimensions":null,"purposes":["comms"],"wikipedia_slug":null,"has_3d_model":false,"image_url":null,"decayed_at":null,"tle_current":{"epoch":"2026-05-24T18:35:10.055616Z","epoch_age_seconds":84806,"freshness":"FRESH","line1":"1 67891U 26035N   26144.77442194  .00007965  00000+0  24876-3 0  9998","line2":"2 67891  97.2853  77.3237 0001720  88.9203 271.2237 15.33447140 15581","mean_motion":15.3344714,"eccentricity":0.000172,"inclination_deg":97.2853,"raan_deg":77.3237,"arg_perigee_deg":88.9203,"mean_anomaly_deg":271.2237,"bstar":0.00024876,"rev_number":1558,"period_min":93.906073606163,"perigee_km":464.35969545629,"apogee_km":466.71391924602,"semimajor_km":6843.6738073512,"source":"CELESTRAK","updated_at":"2026-05-25T13:38:21.734280Z"}}}